Time,TemperatureF,DewpointF,PressureIn,WindDirection,WindDirectionDegrees,WindSpeedMPH,WindSpeedGustMPH,Humidity,HourlyPrecipIn,Conditions,Clouds,dailyrainin,SoftwareType,DateUTC
2013-12-19 00:03:00,42.0,36.6,30.10,SSE,150,0.0,7.0,81,0.00,,,0.00,Wunderground v.1.15,2013-12-19 06:03:00,
2013-12-19 00:13:00,41.6,36.5,30.10,SSE,149,0.0,0.0,82,0.00,,,0.00,Wunderground v.1.15,2013-12-19 06:13:00,
2013-12-19 00:18:00,41.4,36.6,30.10,SSE,150,0.0,0.0,83,0.00,,,0.00,Wunderground v.1.15,2013-12-19 06:18:00,
2013-12-19 00:23:00,41.2,36.7,30.10,SSE,149,0.0,1.0,84,0.00,,,0.00,Wunderground v.1.15,2013-12-19 06:23:00,
2013-12-19 00:33:00,41.2,37.3,30.09,SSE,150,0.0,1.0,86,0.00,,,0.00,Wunderground v.1.15,2013-12-19 06:33:00,
2013-12-19 00:43:00,41.5,37.9,30.09,SSE,150,0.0,1.0,87,0.00,,,0.00,Wunderground v.1.15,2013-12-19 06:43:00,
2013-12-19 00:48:00,41.5,37.9,30.09,SSE,149,0.0,1.0,87,0.00,,,0.00,Wunderground v.1.15,2013-12-19 06:48:00,
2013-12-19 00:53:00,41.3,37.4,30.09,SSE,150,0.0,1.0,86,0.00,,,0.00,Wunderground v.1.15,2013-12-19 06:53:00,
2013-12-19 00:58:00,41.1,37.5,30.09,SSE,149,1.0,1.0,87,0.00,,,0.00,Wunderground v.1.15,2013-12-19 06:58:00,
2013-12-19 01:03:00,41.0,37.4,30.09,SSE,149,1.0,1.0,87,0.00,,,0.00,Wunderground v.1.15,2013-12-19 07:03:00,
2013-12-19 01:08:00,40.9,37.3,30.09,SSE,150,0.0,1.0,87,0.00,,,0.00,Wunderground v.1.15,2013-12-19 07:08:00,
2013-12-19 01:13:00,40.7,37.1,30.09,SSE,149,0.0,1.0,87,0.00,,,0.00,Wunderground v.1.15,2013-12-19 07:13:00,
2013-12-19 01:18:00,40.5,37.2,30.08,SSE,150,0.0,1.0,88,0.00,,,0.00,Wunderground v.1.15,2013-12-19 07:18:00,
2013-12-19 01:23:00,40.3,37.0,30.08,SSE,150,1.0,1.0,88,0.00,,,0.00,Wunderground v.1.15,2013-12-19 07:23:00,
2013-12-19 01:28:00,40.2,36.9,30.08,SSE,150,1.0,1.0,88,0.00,,,0.00,Wunderground v.1.15,2013-12-19 07:28:00,
2013-12-19 01:33:00,40.1,36.8,30.08,SSE,150,1.0,1.0,88,0.00,,,0.00,Wunderground v.1.15,2013-12-19 07:33:00,
2013-12-19 01:38:00,39.9,36.6,30.08,SSE,150,1.0,1.0,88,0.00,,,0.00,Wunderground v.1.15,2013-12-19 07:38:00,
2013-12-19 01:43:00,40.0,37.0,30.08,SSE,149,1.0,1.0,89,0.00,,,0.00,Wunderground v.1.15,2013-12-19 07:43:00,
2013-12-19 01:48:00,40.1,37.4,30.08,SSE,150,0.0,1.0,90,0.00,,,0.00,Wunderground v.1.15,2013-12-19 07:48:00,
2013-12-19 01:53:00,40.1,37.1,30.08,SSE,150,0.0,1.0,89,0.00,,,0.00,Wunderground v.1.15,2013-12-19 07:53:00,
2013-12-19 01:58:00,40.2,37.5,30.08,SSE,150,0.0,1.0,90,0.00,,,0.00,Wunderground v.1.15,2013-12-19 07:58:00,
2013-12-19 02:03:00,40.4,38.0,30.08,SSE,149,0.0,1.0,91,0.00,,,0.00,Wunderground v.1.15,2013-12-19 08:03:00,
2013-12-19 02:08:00,40.4,37.7,30.08,SSE,150,0.0,1.0,90,0.00,,,0.00,Wunderground v.1.15,2013-12-19 08:08:00,
2013-12-19 02:13:00,40.4,37.7,30.08,SSE,150,0.0,1.0,90,0.00,,,0.00,Wunderground v.1.15,2013-12-19 08:13:00,
2013-12-19 02:18:00,40.9,38.8,30.08,SSE,150,1.0,1.0,92,0.00,,,0.00,Wunderground v.1.15,2013-12-19 08:18:00,
2013-12-19 02:23:00,41.3,39.2,30.08,SSE,149,0.0,1.0,92,0.00,,,0.00,Wunderground v.1.15,2013-12-19 08:23:00,
2013-12-19 02:28:00,41.4,39.0,30.08,SSE,150,1.0,1.0,91,0.00,,,0.00,Wunderground v.1.15,2013-12-19 08:28:00,
2013-12-19 02:33:00,41.7,39.5,30.08,SSE,149,1.0,1.0,92,0.00,,,0.00,Wunderground v.1.15,2013-12-19 08:33:00,
2013-12-19 02:38:00,41.7,39.3,30.08,SSE,150,1.0,1.0,91,0.00,,,0.00,Wunderground v.1.15,2013-12-19 08:38:00,
2013-12-19 02:43:00,41.9,39.7,30.08,SSE,150,1.0,1.0,92,0.00,,,0.00,Wunderground v.1.15,2013-12-19 08:43:00,
2013-12-19 02:48:00,42.2,40.0,30.07,SSE,150,1.0,1.0,92,0.00,,,0.00,Wunderground v.1.15,2013-12-19 08:48:00,
2013-12-19 02:53:00,42.4,40.2,30.07,SSE,149,0.0,1.0,92,0.00,,,0.00,Wunderground v.1.15,2013-12-19 08:53:00,
2013-12-19 02:58:00,42.5,40.3,30.07,SSE,149,0.0,1.0,92,0.00,,,0.00,Wunderground v.1.15,2013-12-19 08:58:00,
2013-12-19 03:03:00,42.6,40.4,30.08,SSE,150,0.0,1.0,92,0.00,,,0.00,Wunderground v.1.15,2013-12-19 09:03:00,
2013-12-19 03:08:00,42.7,40.5,30.08,SSE,150,0.0,1.0,92,0.00,,,0.00,Wunderground v.1.15,2013-12-19 09:08:00,
2013-12-19 03:13:00,42.9,40.7,30.08,SSE,150,0.0,1.0,92,0.00,,,0.00,Wunderground v.1.15,2013-12-19 09:13:00,
2013-12-19 03:18:00,43.2,41.0,30.07,SSE,149,0.0,1.0,92,0.00,,,0.00,Wunderground v.1.15,2013-12-19 09:18:00,
2013-12-19 03:23:00,43.6,41.4,30.07,SSE,150,0.0,1.0,92,0.00,,,0.00,Wunderground v.1.15,2013-12-19 09:23:00,
2013-12-19 03:28:00,44.0,41.8,30.07,SSE,149,1.0,1.0,92,0.00,,,0.00,Wunderground v.1.15,2013-12-19 09:28:00,
2013-12-19 03:33:00,44.2,42.0,30.07,SSE,149,1.0,1.0,92,0.00,,,0.00,Wunderground v.1.15,2013-12-19 09:33:00,
2013-12-19 03:38:00,44.5,42.3,30.07,SE,146,1.0,1.0,92,0.00,,,0.00,Wunderground v.1.15,2013-12-19 09:38:00,
2013-12-19 03:48:00,45.0,42.8,30.06,SE,146,0.0,1.0,92,0.00,,,0.00,Wunderground v.1.15,2013-12-19 09:48:00,
2013-12-19 03:53:00,45.2,42.7,30.06,SSE,153,0.0,1.0,91,0.00,,,0.00,Wunderground v.1.15,2013-12-19 09:53:00,
2013-12-19 03:58:00,45.4,42.9,30.06,SSE,152,0.0,1.0,91,0.00,,,0.00,Wunderground v.1.15,2013-12-19 09:58:00,
2013-12-19 04:03:00,45.6,43.1,30.06,South,174,1.0,1.0,91,0.00,,,0.00,Wunderground v.1.15,2013-12-19 10:03:00,
2013-12-19 04:08:00,45.8,43.3,30.06,South,177,0.0,1.0,91,0.00,,,0.00,Wunderground v.1.15,2013-12-19 10:08:00,
2013-12-19 04:13:00,45.9,43.1,30.06,South,176,0.0,1.0,90,0.00,,,0.00,Wunderground v.1.15,2013-12-19 10:13:00,
2013-12-19 04:18:00,46.0,43.2,30.06,South,177,0.0,1.0,90,0.00,,,0.00,Wunderground v.1.15,2013-12-19 10:18:00,
2013-12-19 04:23:00,46.1,43.3,30.06,South,177,1.0,1.0,90,0.00,,,0.00,Wunderground v.1.15,2013-12-19 10:23:00,
2013-12-19 04:28:00,46.1,43.3,30.06,South,177,1.0,1.0,90,0.00,,,0.00,Wunderground v.1.15,2013-12-19 10:28:00,
2013-12-19 04:33:00,46.2,43.4,30.06,South,177,0.0,1.0,90,0.00,,,0.00,Wunderground v.1.15,2013-12-19 10:33:00,
2013-12-19 04:38:00,46.3,43.5,30.06,South,176,0.0,1.0,90,0.00,,,0.00,Wunderground v.1.15,2013-12-19 10:38:00,
2013-12-19 04:43:00,46.4,43.6,30.06,South,171,1.0,1.0,90,0.00,,,0.00,Wunderground v.1.15,2013-12-19 10:43:00,
2013-12-19 04:48:00,46.5,43.7,30.06,South,171,1.0,1.0,90,0.00,,,0.00,Wunderground v.1.15,2013-12-19 10:48:00,
2013-12-19 04:53:00,46.6,43.8,30.06,South,171,0.0,1.0,90,0.00,,,0.00,Wunderground v.1.15,2013-12-19 10:53:00,
2013-12-19 04:58:00,46.8,44.0,30.06,South,171,0.0,1.0,90,0.00,,,0.00,Wunderground v.1.15,2013-12-19 10:58:00,
2013-12-19 05:03:00,46.9,44.1,30.06,SSE,168,0.0,1.0,90,0.00,,,0.00,Wunderground v.1.15,2013-12-19 11:03:00,
2013-12-19 05:08:00,47.0,44.2,30.06,SSE,159,0.0,1.0,90,0.00,,,0.00,Wunderground v.1.15,2013-12-19 11:08:00,
2013-12-19 05:13:00,47.0,43.9,30.06,SSE,157,1.0,1.0,89,0.00,,,0.00,Wunderground v.1.15,2013-12-19 11:13:00,
2013-12-19 05:18:00,47.0,43.9,30.06,SSE,157,1.0,1.0,89,0.00,,,0.00,Wunderground v.1.15,2013-12-19 11:18:00,
2013-12-19 05:23:00,47.1,44.0,30.06,SSE,156,1.0,1.0,89,0.00,,,0.00,Wunderground v.1.15,2013-12-19 11:23:00,
2013-12-19 05:28:00,47.1,44.0,30.06,SSE,156,1.0,1.0,89,0.00,,,0.00,Wunderground v.1.15,2013-12-19 11:28:00,
2013-12-19 05:33:00,47.1,44.0,30.06,SSE,157,1.0,2.0,89,0.00,,,0.00,Wunderground v.1.15,2013-12-19 11:33:00,
2013-12-19 05:38:00,47.1,44.0,30.06,SSE,157,0.0,2.0,89,0.00,,,0.00,Wunderground v.1.15,2013-12-19 11:38:00,
2013-12-19 05:43:00,47.0,43.9,30.06,SSE,157,0.0,2.0,89,0.00,,,0.00,Wunderground v.1.15,2013-12-19 11:43:00,
2013-12-19 05:48:00,46.9,43.8,30.06,SSE,157,1.0,1.0,89,0.00,,,0.00,Wunderground v.1.15,2013-12-19 11:48:00,
2013-12-19 05:53:00,46.7,43.6,30.06,SSE,155,1.0,2.0,89,0.00,,,0.00,Wunderground v.1.15,2013-12-19 11:53:00,
2013-12-19 05:58:00,46.5,43.4,30.06,SSE,155,1.0,2.0,89,0.00,,,0.00,Wunderground v.1.15,2013-12-19 11:58:00,
2013-12-19 06:03:00,46.4,43.3,30.06,SSE,155,1.0,2.0,89,0.00,,,0.00,Wunderground v.1.15,2013-12-19 12:03:00,
2013-12-19 06:08:00,46.4,43.6,30.06,SSE,155,1.0,1.0,90,0.00,,,0.00,Wunderground v.1.15,2013-12-19 12:08:00,
2013-12-19 06:13:00,46.4,43.6,30.06,SSE,155,1.0,2.0,90,0.00,,,0.00,Wunderground v.1.15,2013-12-19 12:13:00,
2013-12-19 06:18:00,46.5,43.7,30.06,SSE,151,1.0,2.0,90,0.00,,,0.00,Wunderground v.1.15,2013-12-19 12:18:00,
2013-12-19 06:23:00,46.5,43.7,30.06,SE,132,1.0,2.0,90,0.00,,,0.00,Wunderground v.1.15,2013-12-19 12:23:00,
2013-12-19 06:28:00,46.6,44.1,30.06,ESE,110,1.0,2.0,91,0.00,,,0.00,Wunderground v.1.15,2013-12-19 12:28:00,
2013-12-19 06:33:00,46.8,44.3,30.06,ESE,110,1.0,2.0,91,0.00,,,0.00,Wunderground v.1.15,2013-12-19 12:33:00,
2013-12-19 06:38:00,47.0,44.5,30.06,ESE,110,0.0,2.0,91,0.00,,,0.00,Wunderground v.1.15,2013-12-19 12:38:00,
2013-12-19 06:43:00,47.0,44.5,30.06,ESE,110,0.0,2.0,91,0.00,,,0.00,Wunderground v.1.15,2013-12-19 12:43:00,
2013-12-19 06:48:00,46.9,44.1,30.07,ESE,110,0.0,2.0,90,0.00,,,0.00,Wunderground v.1.15,2013-12-19 12:48:00,
2013-12-19 06:53:00,46.6,43.8,30.07,ESE,110,1.0,2.0,90,0.00,,,0.00,Wunderground v.1.15,2013-12-19 12:53:00,
2013-12-19 06:58:00,46.1,43.0,30.07,ESE,110,1.0,2.0,89,0.00,,,0.00,Wunderground v.1.15,2013-12-19 12:58:00,
2013-12-19 07:03:00,45.9,43.1,30.07,ESE,110,1.0,2.0,90,0.00,,,0.00,Wunderground v.1.15,2013-12-19 13:03:00,
2013-12-19 07:08:00,45.8,43.3,30.07,ESE,110,1.0,2.0,91,0.00,,,0.00,Wunderground v.1.15,2013-12-19 13:08:00,
2013-12-19 07:13:00,46.1,43.6,30.07,ESE,110,1.0,2.0,91,0.00,,,0.00,Wunderground v.1.15,2013-12-19 13:13:00,
2013-12-19 07:18:00,46.3,44.1,30.07,ESE,110,1.0,2.0,92,0.00,,,0.00,Wunderground v.1.15,2013-12-19 13:18:00,
2013-12-19 07:23:00,46.4,44.2,30.07,ESE,110,1.0,2.0,92,0.00,,,0.00,Wunderground v.1.15,2013-12-19 13:23:00,
2013-12-19 07:28:00,46.6,44.4,30.07,ESE,110,0.0,2.0,92,0.00,,,0.00,Wunderground v.1.15,2013-12-19 13:28:00,
2013-12-19 07:33:00,46.7,44.5,30.08,ESE,110,0.0,2.0,92,0.00,,,0.00,Wunderground v.1.15,2013-12-19 13:33:00,
2013-12-19 07:38:00,47.0,44.8,30.08,ESE,110,1.0,2.0,92,0.00,,,0.00,Wunderground v.1.15,2013-12-19 13:38:00,
2013-12-19 07:48:00,47.4,45.5,30.08,East,89,0.0,2.0,93,0.00,,,0.00,Wunderground v.1.15,2013-12-19 13:48:00,
2013-12-19 07:53:00,47.9,46.0,30.08,ESE,114,0.0,2.0,93,0.00,,,0.00,Wunderground v.1.15,2013-12-19 13:53:00,
2013-12-19 07:58:00,48.5,46.6,30.08,ESE,107,0.0,2.0,93,0.00,,,0.00,Wunderground v.1.15,2013-12-19 13:58:00,
2013-12-19 08:03:00,49.0,47.3,30.08,ESE,107,0.0,2.0,94,0.00,,,0.00,Wunderground v.1.15,2013-12-19 14:03:00,
2013-12-19 08:08:00,49.4,47.5,30.08,ESE,102,0.0,2.0,93,0.00,,,0.00,Wunderground v.1.15,2013-12-19 14:08:00,
2013-12-19 08:13:00,49.9,48.0,30.08,ESE,102,0.0,2.0,93,0.00,,,0.00,Wunderground v.1.15,2013-12-19 14:13:00,
2013-12-19 08:18:00,50.2,48.3,30.08,ESE,102,1.0,2.0,93,0.00,,,0.00,Wunderground v.1.15,2013-12-19 14:18:00,
2013-12-19 08:23:00,50.7,48.7,30.08,ESE,109,1.0,2.0,93,0.00,,,0.00,Wunderground v.1.15,2013-12-19 14:23:00,
2013-12-19 08:28:00,51.3,49.3,30.08,ESE,109,0.0,2.0,93,0.00,,,0.00,Wunderground v.1.15,2013-12-19 14:28:00,
2013-12-19 08:33:00,51.9,49.6,30.08,ESE,113,1.0,2.0,92,0.00,,,0.00,Wunderground v.1.15,2013-12-19 14:33:00,
2013-12-19 08:38:00,52.7,50.1,30.08,SSE,152,1.0,1.0,91,0.00,,,0.00,Wunderground v.1.15,2013-12-19 14:38:00,
2013-12-19 08:43:00,53.4,50.5,30.08,SE,124,1.0,4.0,90,0.00,,,0.00,Wunderground v.1.15,2013-12-19 14:43:00,
2013-12-19 08:48:00,54.3,51.1,30.08,SE,124,1.0,2.0,89,0.00,,,0.00,Wunderground v.1.15,2013-12-19 14:48:00,
2013-12-19 08:53:00,55.3,51.8,30.08,SE,133,2.0,3.0,88,0.00,,,0.00,Wunderground v.1.15,2013-12-19 14:53:00,
2013-12-19 08:58:00,56.2,52.4,30.08,ESE,104,2.0,2.0,87,0.00,,,0.00,Wunderground v.1.15,2013-12-19 14:58:00,
2013-12-19 09:03:00,56.8,52.3,30.08,ESE,122,2.0,4.0,85,0.00,,,0.00,Wunderground v.1.15,2013-12-19 15:03:00,
2013-12-19 09:08:00,57.5,53.0,30.08,SSE,151,3.0,3.0,85,0.00,,,0.00,Wunderground v.1.15,2013-12-19 15:08:00,
2013-12-19 09:13:00,58.2,53.4,30.08,East,94,3.0,4.0,84,0.00,,,0.00,Wunderground v.1.15,2013-12-19 15:13:00,
2013-12-19 09:18:00,58.9,53.7,30.08,SSE,159,3.0,3.0,83,0.00,,,0.00,Wunderground v.1.15,2013-12-19 15:18:00,
2013-12-19 09:23:00,59.7,54.2,30.08,South,174,3.0,3.0,82,0.00,,,0.00,Wunderground v.1.15,2013-12-19 15:23:00,
2013-12-19 09:28:00,60.4,54.5,30.08,SSE,163,2.0,2.0,81,0.00,,,0.00,Wunderground v.1.15,2013-12-19 15:28:00,
2013-12-19 09:33:00,61.1,54.9,30.08,SSE,163,3.0,3.0,80,0.00,,,0.00,Wunderground v.1.15,2013-12-19 15:33:00,
2013-12-19 09:38:00,61.8,55.2,30.08,SE,136,3.0,5.0,79,0.00,,,0.00,Wunderground v.1.15,2013-12-19 15:38:00,
2013-12-19 09:43:00,62.2,55.3,30.08,South,181,3.0,5.0,78,0.00,,,0.00,Wunderground v.1.15,2013-12-19 15:43:00,
2013-12-19 09:48:00,62.7,55.4,30.08,SE,134,3.0,4.0,77,0.00,,,0.00,Wunderground v.1.15,2013-12-19 15:48:00,
2013-12-19 09:58:00,62.9,54.9,30.08,SSW,197,4.0,4.0,75,0.00,,,0.00,Wunderground v.1.15,2013-12-19 15:58:00,
2013-12-19 10:03:00,63.0,55.3,30.08,SSW,202,3.0,4.0,76,0.00,,,0.00,Wunderground v.1.15,2013-12-19 16:03:00,
2013-12-19 10:04:00,63.0,55.3,30.08,South,187,3.0,4.0,76,0.00,,,0.00,Wunderground v.1.15,2013-12-19 16:04:00,
2013-12-19 10:08:00,63.2,55.5,30.08,SSW,194,3.0,3.0,76,0.00,,,0.00,Wunderground v.1.15,2013-12-19 16:08:00,
2013-12-19 10:13:00,63.4,55.3,30.08,ESE,103,3.0,4.0,75,0.00,,,0.00,Wunderground v.1.15,2013-12-19 16:13:00,
2013-12-19 10:18:00,63.5,55.4,30.08,SSW,200,4.0,4.0,75,0.00,,,0.00,Wunderground v.1.15,2013-12-19 16:18:00,
2013-12-19 10:23:00,63.7,55.6,30.08,SSE,148,4.0,6.0,75,0.00,,,0.00,Wunderground v.1.15,2013-12-19 16:23:00,
2013-12-19 10:28:00,64.0,55.5,30.08,SE,135,4.0,4.0,74,0.00,,,0.00,Wunderground v.1.15,2013-12-19 16:28:00,
2013-12-19 10:33:00,64.3,55.8,30.07,SSE,166,4.0,4.0,74,0.00,,,0.00,Wunderground v.1.15,2013-12-19 16:33:00,
2013-12-19 10:38:00,64.5,56.0,30.07,WSW,240,3.0,3.0,74,0.00,,,0.00,Wunderground v.1.15,2013-12-19 16:38:00,
2013-12-19 10:43:00,64.7,55.8,30.07,SW,215,3.0,6.0,73,0.00,,,0.00,Wunderground v.1.15,2013-12-19 16:43:00,
2013-12-19 10:48:00,65.0,56.1,30.07,SSE,150,4.0,4.0,73,0.00,,,0.00,Wunderground v.1.15,2013-12-19 16:48:00,
2013-12-19 10:53:00,65.3,56.4,30.07,SE,140,4.0,5.0,73,0.00,,,0.00,Wunderground v.1.15,2013-12-19 16:53:00,
2013-12-19 10:58:00,65.8,56.9,30.07,SSW,205,4.0,4.0,73,0.00,,,0.00,Wunderground v.1.15,2013-12-19 16:58:00,
2013-12-19 11:03:00,66.6,56.5,30.06,ESE,115,4.0,4.0,70,0.00,,,0.00,Wunderground v.1.15,2013-12-19 17:03:00,
2013-12-19 11:08:00,66.9,56.8,30.06,SE,137,5.0,5.0,70,0.00,,,0.00,Wunderground v.1.15,2013-12-19 17:08:00,
2013-12-19 11:13:00,67.3,57.2,30.06,SSE,153,4.0,6.0,70,0.00,,,0.00,Wunderground v.1.15,2013-12-19 17:13:00,
2013-12-19 11:18:00,67.7,57.2,30.05,SE,145,4.0,4.0,69,0.00,,,0.00,Wunderground v.1.15,2013-12-19 17:18:00,
2013-12-19 11:23:00,68.3,57.7,30.05,SSE,159,3.0,4.0,69,0.00,,,0.00,Wunderground v.1.15,2013-12-19 17:23:00,
2013-12-19 11:28:00,68.2,57.2,30.05,SW,233,3.0,3.0,68,0.00,,,0.00,Wunderground v.1.15,2013-12-19 17:28:00,
2013-12-19 11:33:00,68.3,57.3,30.04,South,173,4.0,4.0,68,0.00,,,0.00,Wunderground v.1.15,2013-12-19 17:33:00,
2013-12-19 11:38:00,68.5,57.5,30.04,SSW,192,4.0,4.0,68,0.00,,,0.00,Wunderground v.1.15,2013-12-19 17:38:00,
2013-12-19 11:43:00,68.7,57.3,30.04,SE,138,3.0,4.0,67,0.00,,,0.00,Wunderground v.1.15,2013-12-19 17:43:00,
2013-12-19 11:48:00,68.2,57.2,30.03,SW,215,4.0,4.0,68,0.00,,,0.00,Wunderground v.1.15,2013-12-19 17:48:00,
2013-12-19 11:53:00,68.0,57.4,30.03,SE,127,3.0,4.0,69,0.00,,,0.00,Wunderground v.1.15,2013-12-19 17:53:00,
2013-12-19 11:58:00,67.9,57.4,30.03,SSE,161,3.0,4.0,69,0.00,,,0.00,Wunderground v.1.15,2013-12-19 17:58:00,
2013-12-19 12:03:00,67.7,57.6,30.03,South,174,4.0,4.0,70,0.00,,,0.00,Wunderground v.1.15,2013-12-19 18:03:00,
2013-12-19 12:08:00,67.6,57.9,30.03,SSW,208,4.0,4.0,71,0.00,,,0.00,Wunderground v.1.15,2013-12-19 18:08:00,
2013-12-19 12:13:00,68.0,57.4,30.03,South,176,4.0,4.0,69,0.00,,,0.00,Wunderground v.1.15,2013-12-19 18:13:00,
2013-12-19 12:18:00,68.4,57.4,30.01,SE,136,4.0,4.0,68,0.00,,,0.00,Wunderground v.1.15,2013-12-19 18:18:00,
2013-12-19 12:23:00,68.6,57.6,30.01,SE,134,4.0,5.0,68,0.00,,,0.00,Wunderground v.1.15,2013-12-19 18:23:00,
2013-12-19 12:28:00,68.8,57.8,30.01,SSW,194,4.0,6.0,68,0.00,,,0.00,Wunderground v.1.15,2013-12-19 18:28:00,
2013-12-19 12:33:00,68.9,57.5,30.00,SSW,202,3.0,6.0,67,0.00,,,0.00,Wunderground v.1.15,2013-12-19 18:33:00,
2013-12-19 12:43:00,69.2,58.2,30.00,SSE,157,3.0,4.0,68,0.00,,,0.00,Wunderground v.1.15,2013-12-19 18:43:00,
2013-12-19 12:48:00,69.3,58.3,29.99,South,185,3.0,4.0,68,0.00,,,0.00,Wunderground v.1.15,2013-12-19 18:48:00,
2013-12-19 12:53:00,69.2,57.8,29.99,South,191,4.0,6.0,67,0.00,,,0.00,Wunderground v.1.15,2013-12-19 18:53:00,
2013-12-19 12:58:00,69.1,58.1,29.99,SSW,196,3.0,3.0,68,0.00,,,0.00,Wunderground v.1.15,2013-12-19 18:58:00,
2013-12-19 13:03:00,68.8,57.4,29.99,SSW,207,3.0,4.0,67,0.00,,,0.00,Wunderground v.1.15,2013-12-19 19:03:00,
2013-12-19 13:08:00,68.7,57.3,29.99,South,186,4.0,4.0,67,0.00,,,0.00,Wunderground v.1.15,2013-12-19 19:08:00,
2013-12-19 13:13:00,68.8,57.0,29.99,SW,226,4.0,4.0,66,0.00,,,0.00,Wunderground v.1.15,2013-12-19 19:13:00,
2013-12-19 13:18:00,69.1,57.3,29.98,SSW,198,4.0,4.0,66,0.00,,,0.00,Wunderground v.1.15,2013-12-19 19:18:00,
2013-12-19 13:23:00,69.6,57.3,29.98,SSE,158,4.0,4.0,65,0.00,,,0.00,Wunderground v.1.15,2013-12-19 19:23:00,
2013-12-19 13:28:00,69.6,57.3,29.98,SE,135,4.0,5.0,65,0.00,,,0.00,Wunderground v.1.15,2013-12-19 19:28:00,
2013-12-19 13:33:00,69.5,57.2,29.98,SSW,209,4.0,6.0,65,0.00,,,0.00,Wunderground v.1.15,2013-12-19 19:33:00,
2013-12-19 13:38:00,69.3,57.0,29.98,South,169,5.0,5.0,65,0.00,,,0.00,Wunderground v.1.15,2013-12-19 19:38:00,
2013-12-19 13:43:00,69.3,57.0,29.98,SSW,205,5.0,5.0,65,0.00,,,0.00,Wunderground v.1.15,2013-12-19 19:43:00,
2013-12-19 13:48:00,69.4,57.1,29.98,SE,145,4.0,4.0,65,0.00,,,0.00,Wunderground v.1.15,2013-12-19 19:48:00,
2013-12-19 13:53:00,69.4,57.1,29.98,SW,222,5.0,5.0,65,0.00,,,0.00,Wunderground v.1.15,2013-12-19 19:53:00,
2013-12-19 13:58:00,69.3,57.0,29.98,SW,215,5.0,5.0,65,0.00,,,0.00,Wunderground v.1.15,2013-12-19 19:58:00,
2013-12-19 14:03:00,69.2,56.9,29.98,South,187,4.0,6.0,65,0.00,,,0.00,Wunderground v.1.15,2013-12-19 20:03:00,
2013-12-19 14:08:00,69.2,57.4,29.98,South,170,4.0,4.0,66,0.00,,,0.00,Wunderground v.1.15,2013-12-19 20:08:00,
2013-12-19 14:13:00,69.3,57.5,29.98,SSW,212,4.0,4.0,66,0.00,,,0.00,Wunderground v.1.15,2013-12-19 20:13:00,
2013-12-19 14:18:00,69.5,57.2,29.97,SSE,156,3.0,5.0,65,0.00,,,0.00,Wunderground v.1.15,2013-12-19 20:18:00,
2013-12-19 14:23:00,69.4,57.5,29.97,SSE,167,4.0,5.0,66,0.00,,,0.00,Wunderground v.1.15,2013-12-19 20:23:00,
2013-12-19 14:28:00,69.2,56.9,29.97,South,169,4.0,4.0,65,0.00,,,0.00,Wunderground v.1.15,2013-12-19 20:28:00,
2013-12-19 14:38:00,69.2,57.4,29.97,SSW,203,4.0,4.0,66,0.00,,,0.00,Wunderground v.1.15,2013-12-19 20:38:00,
2013-12-19 14:43:00,69.3,57.5,29.97,SSW,194,5.0,5.0,66,0.00,,,0.00,Wunderground v.1.15,2013-12-19 20:43:00,
2013-12-19 14:48:00,69.6,57.7,29.96,SSW,210,4.0,4.0,66,0.00,,,0.00,Wunderground v.1.15,2013-12-19 20:48:00,
2013-12-19 14:53:00,69.6,57.7,29.96,SW,218,4.0,6.0,66,0.00,,,0.00,Wunderground v.1.15,2013-12-19 20:53:00,
2013-12-19 14:58:00,69.4,57.5,29.96,SSE,161,4.0,4.0,66,0.00,,,0.00,Wunderground v.1.15,2013-12-19 20:58:00,
2013-12-19 15:03:00,69.5,58.1,29.96,WSW,250,4.0,6.0,67,0.00,,,0.00,Wunderground v.1.15,2013-12-19 21:03:00,
2013-12-19 15:13:00,69.4,58.0,29.96,SSW,198,3.0,4.0,67,0.00,,,0.00,Wunderground v.1.15,2013-12-19 21:13:00,
2013-12-19 15:18:00,69.2,57.8,29.96,SSW,192,3.0,3.0,67,0.00,,,0.00,Wunderground v.1.15,2013-12-19 21:18:00,
2013-12-19 15:23:00,69.1,57.7,29.96,SSE,161,3.0,3.0,67,0.00,,,0.00,Wunderground v.1.15,2013-12-19 21:23:00,
2013-12-19 15:28:00,68.9,57.9,29.96,SE,132,3.0,7.0,68,0.00,,,0.00,Wunderground v.1.15,2013-12-19 21:28:00,
2013-12-19 15:33:00,68.7,57.7,29.96,SSE,147,3.0,15.0,68,0.00,,,0.00,Wunderground v.1.15,2013-12-19 21:33:00,
2013-12-19 15:38:00,68.7,57.7,29.96,SSE,151,3.0,3.0,68,0.00,,,0.00,Wunderground v.1.15,2013-12-19 21:38:00,
2013-12-19 15:43:00,68.6,57.6,29.96,South,188,2.0,15.0,68,0.00,,,0.00,Wunderground v.1.15,2013-12-19 21:43:00,
2013-12-19 15:48:00,68.6,57.6,29.96,SSW,202,2.0,2.0,68,0.00,,,0.00,Wunderground v.1.15,2013-12-19 21:48:00,
2013-12-19 15:53:00,68.5,57.5,29.96,SE,129,3.0,6.0,68,0.00,,,0.00,Wunderground v.1.15,2013-12-19 21:53:00,
2013-12-19 15:58:00,68.5,57.5,29.96,SE,142,3.0,15.0,68,0.00,,,0.00,Wunderground v.1.15,2013-12-19 21:58:00,
2013-12-19 16:03:00,68.4,57.4,29.96,South,175,3.0,15.0,68,0.00,,,0.00,Wunderground v.1.15,2013-12-19 22:03:00,
2013-12-19 16:08:00,68.3,57.3,29.96,ESE,115,3.0,3.0,68,0.00,,,0.00,Wunderground v.1.15,2013-12-19 22:08:00,
2013-12-19 16:13:00,68.2,57.6,29.96,South,184,3.0,15.0,69,0.00,,,0.00,Wunderground v.1.15,2013-12-19 22:13:00,
2013-12-19 16:18:00,68.0,57.4,29.96,South,173,3.0,15.0,69,0.00,,,0.00,Wunderground v.1.15,2013-12-19 22:18:00,
2013-12-19 16:23:00,67.9,57.8,29.96,SSE,148,3.0,15.0,70,0.00,,,0.00,Wunderground v.1.15,2013-12-19 22:23:00,
2013-12-19 16:28:00,67.6,57.5,29.96,SSE,155,2.0,15.0,70,0.00,,,0.00,Wunderground v.1.15,2013-12-19 22:28:00,
2013-12-19 16:33:00,67.5,57.8,29.96,South,190,2.0,15.0,71,0.00,,,0.00,Wunderground v.1.15,2013-12-19 22:33:00,
2013-12-19 16:38:00,67.2,57.5,29.96,SSE,162,2.0,15.0,71,0.00,,,0.00,Wunderground v.1.15,2013-12-19 22:38:00,
2013-12-19 16:43:00,67.0,57.7,29.96,SSE,167,2.0,15.0,72,0.00,,,0.00,Wunderground v.1.15,2013-12-19 22:43:00,
2013-12-19 16:48:00,66.8,57.5,29.96,SSW,193,2.0,2.0,72,0.00,,,0.00,Wunderground v.1.15,2013-12-19 22:48:00,
2013-12-19 16:53:00,66.6,57.3,29.96,South,171,3.0,5.0,72,0.00,,,0.00,Wunderground v.1.15,2013-12-19 22:53:00,
2013-12-19 16:58:00,66.4,57.5,29.96,SSE,163,3.0,3.0,73,0.00,,,0.00,Wunderground v.1.15,2013-12-19 22:58:00,
2013-12-19 17:03:00,66.1,57.2,29.96,South,180,2.0,4.0,73,0.00,,,0.00,Wunderground v.1.15,2013-12-19 23:03:00,
2013-12-19 17:08:00,65.8,57.3,29.96,SE,135,2.0,15.0,74,0.00,,,0.00,Wunderground v.1.15,2013-12-19 23:08:00,
2013-12-19 17:13:00,65.6,57.1,29.96,SE,139,2.0,15.0,74,0.00,,,0.00,Wunderground v.1.15,2013-12-19 23:13:00,
2013-12-19 17:18:00,65.3,57.2,29.96,South,170,1.0,15.0,75,0.00,,,0.00,Wunderground v.1.15,2013-12-19 23:18:00,
2013-12-19 17:23:00,65.0,56.9,29.96,SE,146,1.0,15.0,75,0.00,,,0.00,Wunderground v.1.15,2013-12-19 23:23:00,
2013-12-19 17:28:00,64.7,57.0,29.96,SE,142,2.0,15.0,76,0.00,,,0.00,Wunderground v.1.15,2013-12-19 23:28:00,
2013-12-19 17:33:00,64.6,56.9,29.95,SE,132,2.0,15.0,76,0.00,,,0.00,Wunderground v.1.15,2013-12-19 23:33:00,
2013-12-19 17:43:00,64.4,57.0,29.95,SSE,160,2.0,15.0,77,0.00,,,0.00,Wunderground v.1.15,2013-12-19 23:43:00,
2013-12-19 17:48:00,64.2,56.8,29.96,SE,145,2.0,2.0,77,0.00,,,0.00,Wunderground v.1.15,2013-12-19 23:48:00,
2013-12-19 17:53:00,63.9,56.5,29.96,SE,137,1.0,15.0,77,0.00,,,0.00,Wunderground v.1.15,2013-12-19 23:53:00,
2013-12-19 17:58:00,63.7,56.7,29.96,South,169,2.0,15.0,78,0.00,,,0.00,Wunderground v.1.15,2013-12-19 23:58:00,
2013-12-19 18:03:00,63.5,56.5,29.95,SE,134,2.0,15.0,78,0.00,,,0.00,Wunderground v.1.15,2013-12-20 00:03:00,
2013-12-19 18:08:00,63.4,56.8,29.95,ESE,121,2.0,15.0,79,0.00,,,0.00,Wunderground v.1.15,2013-12-20 00:08:00,
2013-12-19 18:13:00,63.3,56.7,29.95,SSE,163,2.0,15.0,79,0.00,,,0.00,Wunderground v.1.15,2013-12-20 00:13:00,
2013-12-19 18:18:00,63.1,56.5,29.96,SSE,164,2.0,2.0,79,0.00,,,0.00,Wunderground v.1.15,2013-12-20 00:18:00,
2013-12-19 18:23:00,62.9,56.6,29.96,South,173,2.0,15.0,80,0.00,,,0.00,Wunderground v.1.15,2013-12-20 00:23:00,
2013-12-19 18:28:00,62.7,56.4,29.96,South,176,2.0,15.0,80,0.00,,,0.00,Wunderground v.1.15,2013-12-20 00:28:00,
2013-12-19 18:33:00,62.7,56.4,29.96,SE,145,2.0,15.0,80,0.00,,,0.00,Wunderground v.1.15,2013-12-20 00:33:00,
2013-12-19 18:38:00,62.6,56.7,29.96,SE,145,2.0,2.0,81,0.00,,,0.00,Wunderground v.1.15,2013-12-20 00:38:00,
2013-12-19 18:43:00,62.6,56.7,29.96,SE,140,2.0,15.0,81,0.00,,,0.00,Wunderground v.1.15,2013-12-20 00:43:00,
2013-12-19 18:48:00,62.6,56.7,29.97,ESE,117,2.0,2.0,81,0.00,,,0.00,Wunderground v.1.15,2013-12-20 00:48:00,
2013-12-19 18:53:00,62.5,56.6,29.97,South,189,1.0,15.0,81,0.00,,,0.00,Wunderground v.1.15,2013-12-20 00:53:00,
2013-12-19 18:58:00,62.5,56.6,29.97,ESE,118,2.0,15.0,81,0.00,,,0.00,Wunderground v.1.15,2013-12-20 00:58:00,
2013-12-19 19:03:00,62.6,56.7,29.97,ESE,107,2.0,15.0,81,0.00,,,0.00,Wunderground v.1.15,2013-12-20 01:03:00,
2013-12-19 19:08:00,62.5,56.6,29.97,ESE,120,2.0,15.0,81,0.00,,,0.00,Wunderground v.1.15,2013-12-20 01:08:00,
2013-12-19 19:13:00,62.5,56.6,29.97,SE,125,2.0,15.0,81,0.00,,,0.00,Wunderground v.1.15,2013-12-20 01:13:00,
2013-12-19 19:18:00,62.5,56.6,29.96,SSE,157,2.0,2.0,81,0.00,,,0.00,Wunderground v.1.15,2013-12-20 01:18:00,
2013-12-19 19:23:00,62.5,56.6,29.96,SE,141,2.0,4.0,81,0.00,,,0.00,Wunderground v.1.15,2013-12-20 01:23:00,
2013-12-19 19:28:00,62.3,56.4,29.96,South,171,3.0,3.0,81,0.00,,,0.00,Wunderground v.1.15,2013-12-20 01:28:00,
2013-12-19 19:33:00,62.2,56.3,29.96,South,183,2.0,15.0,81,0.00,,,0.00,Wunderground v.1.15,2013-12-20 01:33:00,
2013-12-19 19:38:00,62.1,56.5,29.96,South,169,2.0,2.0,82,0.00,,,0.00,Wunderground v.1.15,2013-12-20 01:38:00,
2013-12-19 19:43:00,62.1,56.5,29.96,SSE,153,3.0,8.0,82,0.00,,,0.00,Wunderground v.1.15,2013-12-20 01:43:00,
2013-12-19 19:48:00,62.0,56.4,29.96,SSE,148,2.0,15.0,82,0.00,,,0.00,Wunderground v.1.15,2013-12-20 01:48:00,
2013-12-19 19:53:00,61.9,56.3,29.96,SSW,198,2.0,15.0,82,0.00,,,0.00,Wunderground v.1.15,2013-12-20 01:53:00,
2013-12-19 20:03:00,61.8,56.2,29.96,SE,127,2.0,15.0,82,0.00,,,0.00,Wunderground v.1.15,2013-12-20 02:03:00,
2013-12-19 20:08:00,61.7,56.1,29.96,South,175,2.0,15.0,82,0.00,,,0.00,Wunderground v.1.15,2013-12-20 02:08:00,
2013-12-19 20:13:00,61.7,56.1,29.96,SSE,160,2.0,15.0,82,0.00,,,0.00,Wunderground v.1.15,2013-12-20 02:13:00,
2013-12-19 20:18:00,61.7,56.1,29.96,SSE,150,2.0,2.0,82,0.00,,,0.00,Wunderground v.1.15,2013-12-20 02:18:00,
2013-12-19 20:23:00,61.6,56.0,29.96,SSE,149,1.0,15.0,82,0.00,,,0.00,Wunderground v.1.15,2013-12-20 02:23:00,
2013-12-19 20:28:00,61.5,56.3,29.96,SE,136,1.0,15.0,83,0.00,,,0.00,Wunderground v.1.15,2013-12-20 02:28:00,
2013-12-19 20:33:00,61.4,56.2,29.96,SSE,150,1.0,15.0,83,0.00,,,0.00,Wunderground v.1.15,2013-12-20 02:33:00,
2013-12-19 20:38:00,61.4,56.2,29.96,ESE,114,1.0,15.0,83,0.00,,,0.00,Wunderground v.1.15,2013-12-20 02:38:00,
2013-12-19 20:43:00,61.3,56.1,29.96,SW,231,1.0,15.0,83,0.00,,,0.00,Wunderground v.1.15,2013-12-20 02:43:00,
2013-12-19 20:48:00,61.1,55.9,29.96,South,171,1.0,15.0,83,0.00,,,0.00,Wunderground v.1.15,2013-12-20 02:48:00,
2013-12-19 20:53:00,60.9,56.0,29.96,SE,126,1.0,15.0,84,0.00,,,0.00,Wunderground v.1.15,2013-12-20 02:53:00,
2013-12-19 20:58:00,60.8,55.9,29.96,SSE,150,2.0,15.0,84,0.00,,,0.00,Wunderground v.1.15,2013-12-20 02:58:00,
2013-12-19 21:03:00,60.7,55.8,29.96,SE,140,2.0,15.0,84,0.00,,,0.00,Wunderground v.1.15,2013-12-20 03:03:00,
2013-12-19 21:08:00,60.7,55.8,29.96,South,171,2.0,2.0,84,0.00,,,0.00,Wunderground v.1.15,2013-12-20 03:08:00,
2013-12-19 21:13:00,60.7,55.8,29.96,South,169,2.0,3.0,84,0.00,,,0.00,Wunderground v.1.15,2013-12-20 03:13:00,
2013-12-19 21:18:00,60.7,55.8,29.95,SSE,148,2.0,15.0,84,0.00,,,0.00,Wunderground v.1.15,2013-12-20 03:18:00,
2013-12-19 21:23:00,60.8,55.9,29.95,SSE,157,3.0,15.0,84,0.00,,,0.00,Wunderground v.1.15,2013-12-20 03:23:00,
2013-12-19 21:28:00,60.9,56.0,29.95,SE,145,3.0,15.0,84,0.00,,,0.00,Wunderground v.1.15,2013-12-20 03:28:00,
2013-12-19 21:33:00,60.9,56.0,29.95,South,172,3.0,15.0,84,0.00,,,0.00,Wunderground v.1.15,2013-12-20 03:33:00,
2013-12-19 21:38:00,60.8,55.9,29.95,SE,145,3.0,15.0,84,0.00,,,0.00,Wunderground v.1.15,2013-12-20 03:38:00,
2013-12-19 21:43:00,60.6,55.7,29.95,SSE,148,2.0,15.0,84,0.00,,,0.00,Wunderground v.1.15,2013-12-20 03:43:00,
2013-12-19 21:48:00,60.5,55.6,29.95,SE,128,2.0,2.0,84,0.00,,,0.00,Wunderground v.1.15,2013-12-20 03:48:00,
2013-12-19 21:53:00,60.3,55.8,29.95,SE,132,1.0,15.0,85,0.00,,,0.00,Wunderground v.1.15,2013-12-20 03:53:00,
2013-12-19 21:58:00,60.1,55.6,29.95,SSE,157,2.0,15.0,85,0.00,,,0.00,Wunderground v.1.15,2013-12-20 03:58:00,
2013-12-19 22:03:00,59.9,55.4,29.95,SE,140,2.0,15.0,85,0.00,,,0.00,Wunderground v.1.15,2013-12-20 04:03:00,
2013-12-19 22:08:00,59.7,55.5,29.95,SE,141,1.0,15.0,86,0.00,,,0.00,Wunderground v.1.15,2013-12-20 04:08:00,
2013-12-19 22:13:00,59.5,55.3,29.95,SE,136,1.0,15.0,86,0.00,,,0.00,Wunderground v.1.15,2013-12-20 04:13:00,
2013-12-19 22:18:00,59.3,55.1,29.94,SE,132,1.0,15.0,86,0.00,,,0.00,Wunderground v.1.15,2013-12-20 04:18:00,
2013-12-19 22:23:00,59.3,55.4,29.94,SSE,157,1.0,15.0,87,0.00,,,0.00,Wunderground v.1.15,2013-12-20 04:23:00,
2013-12-19 22:28:00,59.1,55.2,29.94,SSE,155,1.0,15.0,87,0.00,,,0.00,Wunderground v.1.15,2013-12-20 04:28:00,
2013-12-19 22:33:00,59.1,55.2,29.95,SE,131,1.0,15.0,87,0.00,,,0.00,Wunderground v.1.15,2013-12-20 04:33:00,
2013-12-19 22:38:00,59.1,55.2,29.95,SE,140,1.0,1.0,87,0.00,,,0.00,Wunderground v.1.15,2013-12-20 04:38:00,
2013-12-19 22:43:00,59.1,55.5,29.95,SSE,157,1.0,15.0,88,0.00,,,0.00,Wunderground v.1.15,2013-12-20 04:43:00,
2013-12-19 22:48:00,59.2,55.3,29.94,SSE,158,1.0,1.0,87,0.00,,,0.00,Wunderground v.1.15,2013-12-20 04:48:00,
2013-12-19 22:53:00,59.1,55.5,29.94,South,172,0.0,15.0,88,0.00,,,0.00,Wunderground v.1.15,2013-12-20 04:53:00,
2013-12-19 22:58:00,59.1,55.5,29.94,SE,132,1.0,1.0,88,0.00,,,0.00,Wunderground v.1.15,2013-12-20 04:58:00,
2013-12-19 23:03:00,59.1,55.5,29.93,SE,132,1.0,15.0,88,0.00,,,0.00,Wunderground v.1.15,2013-12-20 05:03:00,
2013-12-19 23:08:00,59.1,55.5,29.93,South,171,1.0,1.0,88,0.00,,,0.00,Wunderground v.1.15,2013-12-20 05:08:00,
2013-12-19 23:13:00,59.1,55.5,29.93,SE,141,1.0,15.0,88,0.00,,,0.00,Wunderground v.1.15,2013-12-20 05:13:00,
2013-12-19 23:18:00,59.0,55.4,29.93,SE,145,1.0,15.0,88,0.00,,,0.00,Wunderground v.1.15,2013-12-20 05:18:00,
2013-12-19 23:23:00,58.9,55.4,29.93,SE,137,1.0,15.0,88,0.00,,,0.00,Wunderground v.1.15,2013-12-20 05:23:00,
2013-12-19 23:28:00,58.9,55.4,29.93,SE,142,1.0,15.0,88,0.00,,,0.00,Wunderground v.1.15,2013-12-20 05:28:00,
2013-12-19 23:33:00,58.9,55.7,29.93,ESE,107,1.0,15.0,89,0.00,,,0.00,Wunderground v.1.15,2013-12-20 05:33:00,
2013-12-19 23:38:00,58.9,55.7,29.93,SE,143,1.0,1.0,89,0.00,,,0.00,Wunderground v.1.15,2013-12-20 05:38:00,
2013-12-19 23:43:00,59.0,55.8,29.93,SSE,152,1.0,3.0,89,0.00,,,0.00,Wunderground v.1.15,2013-12-20 05:43:00,
2013-12-19 23:48:00,59.1,55.9,29.93,SSE,155,1.0,15.0,89,0.00,,,0.00,Wunderground v.1.15,2013-12-20 05:48:00,
2013-12-19 23:53:00,59.3,56.1,29.93,SE,131,2.0,15.0,89,0.00,,,0.00,Wunderground v.1.15,2013-12-20 05:53:00,
2013-12-19 23:58:00,59.4,55.8,29.93,SE,146,1.0,15.0,88,0.00,,,0.00,Wunderground v.1.15,2013-12-20 05:58:00,